Weather in Novoselitsya

Ukraine / Chernovtci District     48˚13′09″N   26˚15′54″E
temp.,
°C
wind,
m/s
gust,
m/s
humid.,
%
clouds,
%
prec.,
mm/h
press.,
hPa
HPBL,
m
1 december, tue
tue123:00−2˚wnw11850 0.0 102921
02:00−3˚nw11860 0.0 102821
05:00−3˚ne01870 0.0 102821
08:00−3˚e11880 0.0 102821
11:00−1˚ene12680 0.0 1028345
14:00+1˚ene22560 0.0 1026526
17:00−2˚ene11710 0.0 102621
20:00−3˚nne11750 0.0 102722
2 december, wed
wed223:00−3˚n12780 0.0 102724
02:00−3˚n11840 0.0 102724
05:00−4˚n119211 0.0 102625
08:00−3˚nw119244 0.0 102755
11:00−1˚n118488 0.0 1025209
14:00ese128194 0.1 1024274
17:00ese1287100 0.0 102466
20:00se2489100 0.0 1024180
3 december, thu
thu323:00−1˚se268997 0.0 1024275
02:00−2˚se379578 0.0 1023193
05:00−2˚se4109448 0.0 1022367
08:00−1˚se5108573 0.0 1022553
11:00+1˚se6974100 0.0 1021664
14:00+2˚se696984 0.0 1019647
17:00−1˚ese4108647 0.0 1018247
20:00−1˚ese4109530 0.0 1017297
4 december, fri
fri423:00+1˚se5139663 0.0 1016495
02:00+3˚se5179576 0.0 1014647
05:00+6˚se9189094 0.0 1012826
08:00+7˚se11198997 0.0 1012963
11:00+9˚se111982100 0.0 10111112
14:00+10˚se12197394 0.0 10101093
17:00+10˚se10187774 0.0 1011916
20:00+9˚se9178587 0.0 1012850
5 december, sat
sat523:00+9˚se91786100 0.0 1012714
02:00+9˚se91589100 0.0 1012818
05:00+9˚se7149298 0.0 1012537
08:00+9˚se7149398 0.0 1013651
11:00+11˚sse71282100 0.1 1013842
14:00+12˚se81376100 0.1 10121034
17:00+12˚se7157999 0.0 10131000
20:00+11˚se91885100 0.0 1013907